Flag for Norway Weather past 2 weeks in Ørsta, Norway

32 °F

Snow flurries. Partly cloudy.

Feels Like: 27 °F
Forecast: 38 / 46 °F
Wind: 5 mph from North

Location: Orsta-Volda / Hovden

Current Time: Nov 26, 2015 at 12:14:25 AM

Latest Report: Nov 25, 2015 at 10:50 PM

Visibility: N/A

Pressure: 29.62 "Hg

Humidity: 100%

Dew point: 32 °F

Location of ØrstaLocation

Historic Weather in Ørsta — Graph


Ørsta temperature yesterday

Maximum temperature yesterday: 37 °F (at 5:50 AM)
Minimum temperature yesterday: 32 °F (at 2:50 PM)
Average temperature yesterday: 34 °F

Past Weeks' High & Low Weather Summary

High50 °F (Nov 12, 10:50 PM)100% (Nov 11, 3:50 PM)29.95 "Hg (Nov 11, 3:50 PM)
Low25 °F (Nov 22, 12:20 PM)46% (Nov 17, 9:50 AM)28.97 "Hg (Nov 17, 1:50 PM)
Average38 °F85%29.43 "Hg
* Reported Nov 10 9:50 PM — Nov 25 9:50 PM, Ørsta, Weather by CustomWeather, © 2015

Note: Actual official high and low records may vary slightly from our data, if they occured in-between our weather recording intervals... More about our weather records


Ørsta weather history for previous 24 hours

Time TempWeatherWind HumidityBarometerVisibility
9:50 PM
Wed, Nov 25
34 °FSnow flurries. Partly cloudy.5 mph93%29.62 "Hg4 mi
8:50 PM32 °FSnow flurries. Partly cloudy.2 mph100%29.59 "HgN/A
7:50 PM32 °FScattered showers. Partly cloudy.2 mph100%29.56 "HgN/A
6:50 PM32 °FSnow flurries. Partly cloudy.3 mph100%29.53 "HgN/A
5:50 PM32 °FScattered showers. Partly cloudy.3 mph100%29.50 "HgN/A
4:50 PM32 °FSnow flurries. Partly cloudy.3 mph100%29.50 "HgN/A
3:50 PM32 °FSnow flurries. Partly cloudy.3 mph100%29.47 "HgN/A
2:50 PM32 °FSnow flurries. Broken clouds.6 mph100%29.45 "HgN/A
1:50 PM34 °FScattered showers. Broken clouds.9 mph93%29.42 "HgN/A
12:50 PM36 °FRain showers. Fog.3 mph93%29.42 "HgN/A
12:20 PM36 °FSprinkles. Broken clouds.3 mph93%29.42 "HgN/A
11:50 AM36 °FScattered showers. Broken clouds.2 mph93%29.39 "HgN/A
10:50 AM34 °FScattered showers. Broken clouds.2 mph100%29.39 "HgN/A
9:50 AM34 °FScattered showers. Broken clouds.2 mph100%29.36 "HgN/A
8:50 AM36 °FScattered showers. Partly cloudy.2 mph93%29.33 "HgN/A
6:50 AM36 °FSprinkles. Partly cloudy.1 mph93%29.30 "HgN/A
5:50 AM37 °FSprinkles. Passing clouds.2 mph93%29.30 "HgN/A
Weather by CustomWeather, © 2015

See weather overviewHow to use our weather pages